Lakehurst, NJ

4:41 PM EST on February 10, 2016 (GMT -0500)
Lakehurst Naes

Weather History for KNEL - April, 2014

Change the Weather History Date:

Thursday, April 24, 2014

  Actual Average (KTTN) Record (KTTN)
Temperature  
Mean Temperature 50 °F 54 °F  
Max Temperature 48 °F 64 °F 84 °F (2001)
Min Temperature 37 °F 44 °F 29 °F (1930)
Degree Days  
Heating Degree Days 16 11  
Month to date heating degree days 358  
Since 1 July heating degree days 4904  
Cooling Degree Days 0 0  
Month to date cooling degree days 0  
Year to date cooling degree days 0  
Moisture  
Dew Point 16 °F    
Average Humidity 31    
Maximum Humidity 62    
Minimum Humidity 12    
Precipitation  
Precipitation 0.00 in 0.10 in 1.50 in (1987)
Month to date precipitation 2.97  
Year to date precipitation 12.58  
Sea Level Pressure  
Sea Level Pressure 29.93 in    
Wind  
Wind Speed 13 mph (NW)    
Max Wind Speed 24 mph    
Max Gust Speed 38 mph    
T = Trace of Precipitation, MM = Missing Value Source: NWS Daily Summary

Daily Weather History Graph

Daily Weather History Graph

Search for Another Location

Airport or City:

Trip Planner

Search our weather history database for the weather conditions in past years. The results will help you decide how hot, cold, wet, or windy it might be!

Date:

Astronomy

Apr. 24, 2014 Rise Set
Actual Time 6:06 AM EDT 7:45 PM EDT
Civil Twilight 5:37 AM EDT 8:13 PM EDT
Nautical Twilight 5:03 AM EDT 8:48 PM EDT
Astronomical Twilight 4:26 AM EDT 9:25 PM EDT
Moon 3:16 AM EDT (4/24) 2:57 PM EDT (4/24)
Length of Visible Light 14h 35m
Length of Day
13h 38m
Waning Crescent, 24% of the Moon is Illuminated
Apr 24
Waning Crescent
Apr 29
New
May 6
First Quarter
May 14
Full
May 21
Last Quarter

Hourly Weather History & Observations

Time (EDT) Temp. Windchill Dew Point Humidity Pressure Visibility Wind Dir Wind Speed Gust Speed Precip Events Conditions
12:00 AM 44.1 °F 38.1 °F 26.1 °F 49% 29.87 in - WNW 11.5 mph 20.7 mph N/A   Clear
3:00 AM 37.9 °F 33.5 °F 26.1 °F 62% 29.87 in - WNW 5.8 mph - N/A   Clear
4:00 AM 39.0 °F 33.4 °F 26.1 °F 60% 29.88 in - WNW 8.1 mph - N/A   Clear
5:00 AM 39.0 °F 33.4 °F 26.1 °F 60% 29.89 in - WNW 8.1 mph - N/A   Clear
6:00 AM 37.9 °F 31.5 °F 25.0 °F 60% 29.91 in - WNW 9.2 mph - N/A   Clear
7:00 AM 41.0 °F 34.7 °F 21.9 °F 47% 29.94 in - WNW 10.4 mph - N/A   Clear
8:00 AM 45.0 °F 38.2 °F 18.0 °F 34% 29.95 in - WNW 15.0 mph 24.2 mph N/A   Clear
9:00 AM 46.0 °F 37.6 °F 17.1 °F 31% 29.96 in - WNW 24.2 mph 31.1 mph N/A   Clear
11:00 AM 52.0 °F - 12.9 °F 21% 29.96 in - NW 24.2 mph 35.7 mph N/A   Clear
12:00 PM 55.0 °F - 12.9 °F 19% 29.96 in - NW 16.1 mph 28.8 mph N/A   Clear
1:00 PM 57.0 °F - 12.9 °F 18% 29.94 in - WNW 20.7 mph 33.4 mph N/A   Clear
2:00 PM 59.0 °F - 14.0 °F 17% 29.92 in - WNW 23.0 mph 32.2 mph N/A   Clear
3:00 PM 60.1 °F - 12.0 °F 15% 29.91 in - WNW 23.0 mph 38.0 mph N/A   Clear
4:00 PM 62.1 °F - 10.0 °F 13% 29.90 in - WNW 19.6 mph 25.3 mph N/A   Clear
5:00 PM 61.0 °F - 8.1 °F 12% 29.90 in - NW 18.4 mph 29.9 mph N/A   Clear
6:00 PM 61.0 °F - 8.1 °F 12% 29.91 in - NNW 12.7 mph 23.0 mph N/A   Clear
8:00 PM 55.0 °F - 12.9 °F 19% 29.96 in - WNW 9.2 mph - N/A   Clear
9:00 PM 53.1 °F - 12.0 °F 20% 29.99 in - Variable 4.6 mph - N/A   Clear
11:00 PM 51.1 °F - 10.0 °F 19% 30.01 in - NNW 4.6 mph - N/A   Clear